This demonstration page uses our WeatherBlox Daily Observations layout. Learn more.

Left ArrowRight Arrow

38.20091, -84.87328

Hourly Observations for April 26, 2016

Temp ( °F °C ) Dew Point ( °F °C ) Humidity (%) Winds ( mph kmh ) Pressure ( in mb ) Visibility ( mi km ) Precip ( " mm )
12:53 am 00:53 Clear 70 21.1 49 9.4 47 47 SSW 10 17 29.80 1009 10 16 0.00 0.00
1:53 am 01:53 Clear 69 20.6 49 9.4 49 49 SW 9 15 29.80 1009 10 16 0.00 0.00
2:53 am 02:53 Clear 66 18.9 49 9.4 54 54 SW 8 13 29.80 1009 10 16 0.00 0.00
3:53 am 03:53 Clear 65 18.3 50 10 59 59 SW 10 17 29.80 1009 10 16 0.00 0.00
4:53 am 04:53 Mostly Cloudy 65 18.3 50 10 59 59 SW 9 15 29.81 1010 10 16 0.00 0.00
5:53 am 05:53 Cloudy 65 18.3 51 10.6 61 61 SW 9 15 29.82 1010 10 16 0.00 0.00
6:53 am 06:53 Cloudy 66 18.9 52 11.1 61 61 SW 8 13 29.83 1010 10 16 0.00 0.00
7:53 am 07:53 Mostly Cloudy 66 18.9 53 11.7 63 63 SW 8 13 29.84 1011 10 16 0.00 0.00
8:53 am 08:53 Sunny 69 20.6 54 12.2 59 59 SW 9 15 29.84 1011 10 16 0.00 0.00
9:53 am 09:53 Cloudy 73 22.8 57 13.9 57 57 SW 12 19 29.84 1011 10 16 0.00 0.00
10:53 am 10:53 Mostly Cloudy 74 23.3 58 14.4 57 57 WSW 13 20 29.83 1010 10 16 0.00 0.00
11:53 am 11:53 Mostly Sunny 78 25.6 60 15.6 54 54 WSW 9 15 29.81 1010 10 16 0.00 0.00
12:53 pm 12:53 Mostly Cloudy 80 26.7 61 16.1 52 52 SW 14 22 29.80 1009 10 16 0.00 0.00
1:53 pm 13:53 Mostly Cloudy 81 27.2 62 16.7 53 53 SW 10 17 29.78 1009 10 16 0.00 0.00
2:53 pm 14:53 Mostly Cloudy 83 28.3 61 16.1 48 48 SW 15 24 29.78 1009 10 16 0.00 0.00
3:53 pm 15:53 Mostly Cloudy 80 26.7 61 16.1 52 52 W 12 19 29.77 1008 10 16 0.00 0.00
4:53 pm 16:53 Mostly Sunny 81 27.2 62 16.7 53 53 W 8 13 29.74 1007 10 16 0.00 0.00
5:37 pm 17:37 Mostly Cloudy with Thunderstorms 81 27.2 61 16.1 51 51 W 6 9 29.74 1007 10 16 0.00 0.00
5:53 pm 17:53 Mostly Cloudy with Nearby Thunderstorms 81 27.2 61 16.1 51 51 W 5 7 29.74 1007 10 16 0.00 0.00
6:23 pm 18:23 Partly Cloudy 81 27.2 62 16.7 53 53 NNW 5 7 29.71 1006 10 16 0.00 0.00
6:37 pm 18:37 Partly Cloudy with Thunderstorms 80 26.7 62 16.7 54 54 N 5 7 29.71 1006 10 16 0.00 0.00
6:53 pm 18:53 Mostly Cloudy with Thunderstorms 76 24.4 63 17.2 64 64 NW 10 17 29.71 1006 5 8 0.01 0.25
7:37 pm 19:37 Partly Cloudy with Nearby Thunderstorms 65 18.3 59 15 81 81 SSE 3 6 29.71 1006 10 16 0.02 0.51
7:50 pm 19:50 Partly Cloudy 66 19 57 14 73 73 S 8 13 29.74 1007 10 16 0.02 0.51
7:53 pm 19:53 Partly Cloudy 67 19.4 58 14.4 73 73 S 5 7 29.75 1008 10 16 0.02 0.51
8:29 pm 20:29 Clear with Nearby Thunderstorms 68 20 57 13.9 68 68 S 8 13 29.71 1006 10 16 0.00 0.00
8:44 pm 20:44 Clear 67 19.4 58 14.4 73 73 SSW 7 11 29.71 1006 10 16 0.00 0.00
8:53 pm 20:53 Clear 67 19.4 58 14.4 73 73 SSW 6 9 29.71 1006 10 16 0.00 0.00
9:53 pm 21:53 Partly Cloudy 66 18.9 60 15.6 81 81 NE 5 7 29.74 1007 10 16 0.00 0.00
10:02 pm 22:02 Mostly Cloudy with Nearby Thunderstorms 66 18.9 61 16.1 84 84 undefined N/A 29.80 1009 10 16 0.00 0.00
10:07 pm 22:07 Mostly Cloudy with Thunderstorms 65 18.3 59 15 81 81 WNW 10 17 29.80 1009 3 4 0.12 3.05
10:11 pm 22:11 Mostly Cloudy with Strong Thunderstorms 64 17.8 60 15.6 87 87 NW 23 37 29.83 1010 1 2 0.19 4.83
10:23 pm 22:23 Cloudy with Thunderstorms 63 17.2 58 14.4 84 84 N 18 30 29.85 1011 2 3 0.29 7.37
10:31 pm 22:31 Cloudy with Thunderstorms 63 17.2 59 15 87 87 N 13 20 29.85 1011 4 6 0.31 7.87
10:50 pm 22:50 Cloudy with Rain 63 17 59 15 88 88 N 12 19 29.83 1010 5 8 0.39 9.91
10:53 pm 22:53 Cloudy with Rain 63 17.2 59 15 87 87 N 9 15 29.81 1010 6 10 0.40 10.16
11:03 pm 23:03 Cloudy with Nearby Thunderstorms 63 17.2 59 15 87 87 N 7 11 29.83 1010 10 16 0.00 0.03
11:18 pm 23:18 Cloudy with Light Rain 63 17.2 59 15 87 87 NE 7 11 29.83 1010 9 14 0.02 0.51
11:53 pm 23:53 Cloudy with Light Rain 62 16.7 59 15 90 90 E 8 13 29.79 1009 10 16 0.03 0.76

Powered by AerisWeather